• Join FlightAware (Why Join?)
  • Login
  • US Flag GB Flag 
14:03 EDT


 

Airport Tracker/Info


-or-


 

Live Flight TrackerFlight Track Log ✈ JZA8745 ✈ 17-May-2013 ✈ CZBF - CYUL

Flight Track Log - Related Links

Times and Time Zones

All times are in EDT time to prevent confusion due to time zone crossing. See the JZA8745 flight status page for this flight to view local times or setup timezone preferences in your user account.

Time Position Orientation Groundspeed Altitude Reporting Facility
EDT Latitude Longitude Course Direction KTS MPH feet Rate Location/Type
15:05 47.5500 -65.9333 244° Southwest 150 173 5,500  Level Moncton Center
15:06 47.5167 -66.0167 239° Southwest 170 196 6,700 1,260 Climbing Moncton Center
15:07 47.5000 -66.0500 234° Southwest 180 207 8,100 1,320 Climbing Moncton Center
15:08 47.4833 -66.1333 254° West 180 207 9,400 1,260 Climbing Moncton Center
15:09 47.4500 -66.2000 234° Southwest 170 196 10,600 1,200 Climbing Moncton Center
15:10 47.3369 -66.5228 244° Southwest  Level FlightAware Approximate
15:10 47.4333 -66.2500 244° Southwest 180 207 11,800  Level Moncton Center
15:11 47.4167 -66.3333 254° West 180 207 13,000 1,020 Climbing Moncton Center
15:12 47.3833 -66.4000 234° Southwest 190 219 13,900 960 Climbing Moncton Center
15:13 47.3667 -66.4667 250° West 200 230 15,000 1,080 Climbing Moncton Center
15:14 47.3333 -66.5500 239° Southwest 200 230 16,100 960 Climbing Moncton Center
15:15 47.3167 -66.6000 244° Southwest 200 230 17,000 960 Climbing Moncton Center
15:16 47.2833 -66.7000 244° Southwest 200 230 18,100 960 Climbing Moncton Center
15:17 47.2500 -66.7667 234° Southwest 200 230 19,000 900 Climbing Moncton Center
15:18 47.2333 -66.8333 250° West 200 230 20,000 900 Climbing Moncton Center
15:19 47.2000 -66.9167 240° Southwest 200 230 20,900 840 Climbing Moncton Center
15:20 47.1833 -66.9667 244° Southwest 200 230 21,700 540 Climbing Moncton Center
15:21 47.1500 -67.0333 234° Southwest 200 230 22,000 120 Climbing Moncton Center
15:22 47.1167 -67.1333 244° Southwest 230 265 22,000  Level Moncton Center
15:23 47.1000 -67.2333 256° West 250 288 22,000  Level Moncton Center
15:24 47.0667 -67.3000 234° Southwest 250 288 22,000  Level Moncton Center
15:25 47.0167 -67.4000 234° Southwest 250 288 22,000  Level Moncton Center
15:26 46.9833 -67.4833 240° Southwest 260 299 22,000  Level Moncton Center
15:27 46.9500 -67.5833 244° Southwest 260 299 22,000  Level Moncton Center
15:28 46.9167 -67.6833 244° Southwest 270 311 22,000 -60 Level Moncton Center
15:29 46.8967 -67.7711 252° West 261 300 21,900  Descending Boston Center
15:30 46.8500 -67.8667 234° Southwest 260 299 22,000  Climbing Moncton Center
15:31 46.8264 -67.9500 248° West 271 312 21,900  Descending Boston Center
15:32 46.7947 -68.0433 244° Southwest 283 326 22,000  Climbing Boston Center
15:33 46.7550 -68.1586 243° Southwest 273 314 22,000  Level Boston Center
15:34 46.7272 -68.2547 247° West 268 308 22,000  Level Boston Center
15:35 46.6997 -68.3536 248° West 263 303 22,000  Level Boston Center
15:36 46.6697 -68.4525 246° West 263 303 22,000  Level Boston Center
15:37 46.6472 -68.5297 247° West 263 303 22,000  Level Boston Center
15:38 46.6114 -68.6439 245° Southwest 263 303 22,000  Level Boston Center
15:39 46.5833 -68.7394 247° West 263 303 22,000  Level Boston Center
15:40 46.5533 -68.8442 247° West 263 303 22,000  Level Boston Center
15:41 46.5247 -68.9394 246° West 263 303 22,000  Level Boston Center
15:42 46.4944 -69.0347 245° Southwest 263 303 22,000  Level Boston Center
15:43 46.4661 -69.1358 248° West 263 303 22,000 -60 Level Boston Center
15:44 46.4353 -69.2281 244° Southwest 268 308 21,900 -60 Descending Boston Center
15:45 46.4047 -69.3261 246° West 263 303 21,900  Level Boston Center
15:46 46.3758 -69.4211 246° West 263 303 21,900  Level Boston Center
15:47 46.3450 -69.5189 245° Southwest 263 303 21,900  Level Boston Center
15:48 46.3161 -69.6164 247° West 263 303 21,900  Level Boston Center
15:49 46.2792 -69.7294 245° Southwest 263 303 21,900  Level Boston Center
15:50 46.2481 -69.8269 245° Southwest 263 303 21,900  Level Boston Center
15:51 46.2169 -69.9214 245° Southwest 263 303 21,900  Level Boston Center
15:52 46.1897 -70.0186 248° West 263 303 21,900  Level Boston Center
15:53 46.1583 -70.1128 244° Southwest 263 303 21,900  Level Boston Center
15:54 46.1269 -70.2097 245° Southwest 263 303 21,900  Level Boston Center
15:55 46.0833 -70.2833 230° Southwest 260 299 22,000  Climbing Moncton Center
15:56 46.0667 -70.3833 257° West 260 299 22,000  Level Moncton Center
15:57 46.0333 -70.4667 240° Southwest 260 299 22,000  Level Moncton Center
15:58 46.0000 -70.5667 244° Southwest 260 299 22,000  Level Moncton Center
15:59 45.9667 -70.6667 244° Southwest 260 299 22,000  Level Moncton Center
16:00 45.9500 -70.7833 258° West 260 299 22,000  Level Moncton Center
16:01 45.9000 -70.8667 229° Southwest 260 299 22,000  Level Moncton Center
16:02 45.9000 -70.9667 270° West 260 299 22,000  Level Moncton Center
16:03 45.9000 -71.0667 270° West 260 299 22,000  Level Moncton Center
16:04 45.8833 -71.1500 254° West 250 288 22,000  Level Moncton Center
16:05 45.8833 -71.2833 270° West 250 288 22,000  Level Moncton Center
16:06 45.8667 -71.3667 254° West 250 288 22,000  Level Moncton Center
16:07 45.8500 -71.4667 257° West 260 299 22,000  Level Moncton Center
16:08 45.8500 -71.5667 270° West 250 288 22,000  Level Moncton Center
16:09 45.8333 -71.6500 254° West 250 288 22,000  Level Moncton Center
16:10 45.8333 -71.7833 270° West 260 299 22,000  Level Moncton Center
16:11 45.8333 -71.8667 270° West 250 288 22,000  Level Moncton Center
16:12 45.8000 -71.9667 244° Southwest 250 288 22,000 -300 Level Moncton Center
16:13 45.8000 -72.0833 270° West 250 288 21,500 -900 Descending Moncton Center
16:14 45.7833 -72.1833 257° West 280 322 20,300 -1,320 Descending Moncton Center
16:15 45.7833 -72.3000 270° West 290 334 18,900 -1,320 Descending Moncton Center
16:16 45.7667 -72.4167 258° West 290 334 17,700 -1,380 Descending Moncton Center
16:17 45.7500 -72.5333 258° West 280 322 16,200 -1,440 Descending Moncton Center
16:18 45.7333 -72.6333 257° West 280 322 14,900 -1,320 Descending Moncton Center
16:19 45.7333 -72.7500 270° West 280 322 13,600 -1,380 Descending Moncton Center
16:20 45.7167 -72.8667 258° West 280 322 12,200 -1,320 Descending Moncton Center
16:21 45.7167 -72.9667 270° West 270 311 11,000 -1,320 Descending Moncton Center
16:22 45.7000 -73.0500 254° West 260 299 9,600 -1,260 Descending Moncton Center
16:23 45.6833 -73.1500 257° West 260 299 8,500 -1,140 Descending Moncton Center
16:24 45.6833 -73.2500 270° West 250 288 7,400 -1,080 Descending Moncton Center
16:25 45.6667 -73.3667 258° West 250 288 6,400 -840 Descending Moncton Center
16:26 45.6500 -73.4000 234° Southwest 190 219 5,600 -780 Descending Montreal Center
16:27 45.6333 -73.4833 254° West 200 230 4,700 -960 Descending Montreal Center
16:28 45.6000 -73.5500 234° Southwest 200 230 3,700 -1,020 Descending Montreal Center
16:29 45.5667 -73.6000 226° Southwest 190 219 2,700 -1,080 Descending Montreal Center
16:30 45.5333 -73.6500 226° Southwest 190 219 1,600 -1,140 Descending Montreal Center